Weather History for KAQP - August, 2013

Change the Weather History Date:

Sunday, August 4, 2013

  Actual Average Record
Temperature  
Mean Temperature 66 °F -  
Max Temperature 78 °F 78 °F 93 °F (2001)
Min Temperature 53 °F 57 °F 33 °F (2002)
Growing Degree Days 16 (Base 50)    
Moisture  
Dew Point 52 °F    
Average Humidity 68    
Maximum Humidity 88    
Minimum Humidity 39    
Precipitation  
Precipitation 0.21 in - - ()
Sea Level Pressure  
Sea Level Pressure 30.14 in    
Wind  
Wind Speed 4 mph (SE)    
Max Wind Speed 12 mph    
Max Gust Speed -    
Visibility 10 miles    
Events Rain , Thunderstorm    
Averages and records for this station are not official NWS values.
T = Trace of Precipitation, MM = Missing Value Source: NWS Daily Summary

Daily Weather History Graph

Daily Weather History Graph

Search for Another Location

Airport or City:

Trip Planner

Search our weather history database for the weather conditions in past years. The results will help you decide how hot, cold, wet, or windy it might be!

Date:

Astronomy

Aug. 04, 2013 Rise Set
Actual Time 6:12 AM CDT 8:46 PM CDT
Civil Twilight 5:39 AM CDT 9:20 PM CDT
Nautical Twilight 4:56 AM CDT 10:02 PM CDT
Astronomical Twilight 4:08 AM CDT 10:49 PM CDT
Moon 4:13 AM CDT (8/4) 7:10 PM CDT (8/4)
Length of Visible Light 15h 41m
Length of Day
14h 34m
Waning Crescent, 4% of the Moon is Illuminated
Aug 4
Waning Crescent
Aug 6
New
Aug 14
First Quarter
Aug 20
Full
Aug 28
Last Quarter

Hourly Weather History & Observations

Time (CDT) Temp. Dew Point Humidity Pressure Visibility Wind Dir Wind Speed Gust Speed Precip Events Conditions
12:13 AM 57.2 °F 51.8 °F 82% 30.23 in 10.0 mi NE 4.6 mph - N/A   Clear
12:33 AM 57.2 °F 50.0 °F 77% 30.24 in 10.0 mi NE 4.6 mph - N/A   Clear
12:53 AM 55.4 °F 51.8 °F 88% 30.25 in 10.0 mi ENE 3.5 mph - N/A   Clear
1:13 AM 55.4 °F 50.0 °F 82% 30.25 in 10.0 mi ENE 3.5 mph - N/A   Clear
1:32 AM 55.4 °F 50.0 °F 82% 30.25 in 10.0 mi ENE 4.6 mph - N/A   Clear
1:35 AM 55.4 °F 50.0 °F 82% 30.24 in 10.0 mi ENE 4.6 mph - N/A   Clear
1:53 AM 55.4 °F 48.2 °F 77% 30.23 in 10.0 mi ENE 5.8 mph - N/A   Clear
2:13 AM 55.4 °F 48.2 °F 77% 30.22 in 10.0 mi East 4.6 mph - N/A   Clear
2:33 AM 53.6 °F 48.2 °F 82% 30.23 in 10.0 mi Calm Calm - N/A   Clear
2:54 AM 53.6 °F 48.2 °F 82% 30.21 in 10.0 mi East 4.6 mph - N/A   Clear
3:13 AM 53.6 °F 48.2 °F 82% 30.21 in 10.0 mi East 4.6 mph - N/A   Clear
3:33 AM 53.6 °F 48.2 °F 82% 30.21 in 10.0 mi East 3.5 mph - N/A   Clear
3:53 AM 53.6 °F 48.2 °F 82% 30.21 in 10.0 mi East 3.5 mph - N/A   Clear
4:13 AM 53.6 °F 48.2 °F 82% 30.21 in 10.0 mi Calm Calm - N/A   Clear
4:33 AM 53.6 °F 48.2 °F 82% 30.20 in 10.0 mi East 4.6 mph - N/A   Clear
4:54 AM 53.6 °F 48.2 °F 82% - 10.0 mi Calm Calm - N/A   Clear
5:13 AM 53.6 °F 48.2 °F 82% 30.20 in 10.0 mi Calm Calm - N/A   Clear
5:33 AM 53.6 °F 48.2 °F 82% 30.18 in 10.0 mi Calm Calm - N/A   Clear
5:53 AM 53.6 °F 48.2 °F 82% 30.20 in 10.0 mi Calm Calm - N/A   Clear
6:13 AM 53.6 °F 48.2 °F 82% 30.21 in 10.0 mi Calm Calm - N/A   Clear
6:33 AM 53.6 °F 48.2 °F 82% 30.21 in 10.0 mi Calm Calm - N/A   Clear
6:53 AM 53.6 °F 50.0 °F 88% 30.22 in 10.0 mi Calm Calm - N/A   Clear
7:13 AM 53.6 °F 50.0 °F 88% 30.22 in 10.0 mi Calm Calm - N/A   Clear
7:34 AM 55.4 °F 51.8 °F 88% 30.23 in 10.0 mi Calm Calm - N/A   Clear
7:53 AM 55.4 °F 51.8 °F 88% 30.23 in 10.0 mi Calm Calm - N/A   Clear
8:13 AM 55.4 °F 51.8 °F 88% 30.21 in 10.0 mi ESE 4.6 mph - N/A Rain Light Rain
8:33 AM 57.2 °F 51.8 °F 82% 30.20 in 10.0 mi SE 6.9 mph - N/A   Light Drizzle
8:53 AM 59.0 °F 53.6 °F 82% 30.20 in 10.0 mi SE 6.9 mph - N/A   Clear
9:13 AM 60.8 °F 53.6 °F 77% 30.19 in 10.0 mi ESE 6.9 mph - N/A   Clear
9:33 AM 60.8 °F 51.8 °F 72% 30.19 in 10.0 mi SE 4.6 mph - N/A   Clear
9:53 AM 60.8 °F 51.8 °F 72% 30.19 in 10.0 mi Calm Calm - N/A   Clear
10:13 AM 60.8 °F 53.6 °F 77% 30.19 in 10.0 mi SE 3.5 mph - N/A   Clear
10:33 AM 62.6 °F 53.6 °F 72% 30.19 in 10.0 mi SSE 3.5 mph - N/A   Scattered Clouds
10:54 AM 62.6 °F 53.6 °F 72% 30.18 in 10.0 mi SSE 3.5 mph - N/A   Clear
11:13 AM 64.4 °F 53.6 °F 68% 30.19 in 10.0 mi Calm Calm - N/A   Scattered Clouds
11:33 AM 64.4 °F 53.6 °F 68% 30.19 in 7.0 mi Calm Calm - N/A   Mostly Cloudy
11:54 AM 64.4 °F 51.8 °F 64% 30.19 in 10.0 mi Calm Calm - N/A   Overcast
12:13 PM 64.4 °F 53.6 °F 68% 30.18 in 10.0 mi NE 4.6 mph - N/A   Overcast
12:33 PM 66.2 °F 53.6 °F 64% 30.17 in 10.0 mi ESE 4.6 mph - N/A   Overcast
12:53 PM 66.2 °F 53.6 °F 64% 30.16 in 10.0 mi SSE 5.8 mph - N/A   Overcast
1:13 PM 66.2 °F 53.6 °F 64% 30.15 in 10.0 mi SSE 5.8 mph - N/A   Overcast
1:33 PM 68.0 °F 53.6 °F 60% 30.15 in 10.0 mi ESE 3.5 mph - N/A   Overcast
1:53 PM 69.8 °F 53.6 °F 56% 30.15 in 10.0 mi ESE 4.6 mph - N/A   Mostly Cloudy
2:13 PM 71.6 °F 55.4 °F 57% 30.14 in 10.0 mi ESE 4.6 mph - N/A   Scattered Clouds
2:33 PM 71.6 °F 55.4 °F 57% 30.14 in 10.0 mi SE 6.9 mph - N/A   Scattered Clouds
2:53 PM 73.4 °F 53.6 °F 50% 30.13 in 10.0 mi SE 6.9 mph - N/A   Scattered Clouds
3:13 PM 73.4 °F 51.8 °F 47% 30.12 in 10.0 mi ESE 5.8 mph - N/A   Scattered Clouds
3:33 PM 77.0 °F 50.0 °F 39% 30.12 in 10.0 mi South 5.8 mph - N/A   Clear
3:54 PM 75.2 °F 51.8 °F 44% 30.11 in 10.0 mi South 8.1 mph - N/A   Scattered Clouds
4:13 PM 75.2 °F 53.6 °F 47% 30.10 in 10.0 mi South 8.1 mph - N/A   Scattered Clouds
4:33 PM 75.2 °F 53.6 °F 47% 30.09 in 10.0 mi SSE 5.8 mph - N/A   Clear
4:53 PM 75.2 °F 53.6 °F 47% 30.09 in 10.0 mi ESE 10.4 mph - N/A   Scattered Clouds
5:13 PM 77.0 °F 51.8 °F 41% 30.08 in 10.0 mi SSE 6.9 mph - N/A   Scattered Clouds
5:33 PM 77.0 °F 50.0 °F 39% 30.06 in 10.0 mi SE 6.9 mph - N/A   Mostly Cloudy
5:53 PM 78.8 °F 51.8 °F 39% 30.05 in 10.0 mi SE 9.2 mph - N/A   Scattered Clouds
6:13 PM 77.0 °F 51.8 °F 41% 30.04 in 10.0 mi SE 11.5 mph - N/A   Clear
6:33 PM 77.0 °F 51.8 °F 41% 30.03 in 10.0 mi SE 9.2 mph - N/A   Clear
6:53 PM 75.2 °F 51.8 °F 44% 30.03 in 10.0 mi SSE 8.1 mph - N/A   Clear
7:14 PM 73.4 °F 51.8 °F 47% 30.02 in 10.0 mi SE 4.6 mph - N/A   Scattered Clouds
7:33 PM 73.4 °F 53.6 °F 50% 30.02 in 10.0 mi SE 4.6 mph - N/A   Scattered Clouds
7:53 PM 73.4 °F 55.4 °F 53% 30.01 in 7.0 mi SE 4.6 mph - N/A   Mostly Cloudy
8:13 PM 71.6 °F 55.4 °F 57% 30.00 in 10.0 mi SE 5.8 mph - N/A   Mostly Cloudy
8:33 PM 71.6 °F 55.4 °F 57% 30.00 in 10.0 mi SE 4.6 mph - N/A   Overcast
8:53 PM 71.6 °F 55.4 °F 57% 30.00 in 10.0 mi SE 3.5 mph - N/A   Overcast
9:13 PM 71.6 °F 55.4 °F 57% 30.00 in 10.0 mi SE 4.6 mph - N/A   Overcast
9:33 PM 69.8 °F 55.4 °F 60% 30.00 in 10.0 mi SE 5.8 mph - N/A   Mostly Cloudy
9:54 PM 69.8 °F 55.4 °F 60% 29.99 in 10.0 mi SE 6.9 mph - N/A   Mostly Cloudy
10:14 PM 69.8 °F 57.2 °F 64% 29.98 in 10.0 mi SE 6.9 mph - N/A   Scattered Clouds
10:33 PM 68.0 °F 57.2 °F 68% 29.98 in 10.0 mi SSE 6.9 mph - N/A   Scattered Clouds
10:53 PM 68.0 °F 57.2 °F 68% 29.97 in 10.0 mi South 5.8 mph - N/A   Mostly Cloudy
11:13 PM 69.8 °F 57.2 °F 64% 29.95 in 10.0 mi SSE 8.1 mph - N/A Thunderstorm Overcast
11:34 PM 69.8 °F 59.0 °F 68% 29.98 in 10.0 mi West 3.5 mph - N/A Rain , Thunderstorm Light Thunderstorms and Rain
11:53 PM 66.2 °F 60.8 °F 83% 29.97 in 4.0 mi South 6.9 mph - 0.21 in Rain , Thunderstorm Heavy Thunderstorms and Rain